STARLINK-31455, 59309

Orbit data source: Space-Track

STARLINK-31455, 59309 is a payload satellite owned by SpaceX/Seattle (US) in LEO that was launched on Sun, 24 Mar 2024 UTC via an FALCON 9 launch vehicle from the Air Force Eastern Test Range (AFETR). Payload-class satellites include a variety of spacecraft equipped with specific instruments for various scientific and technological missions. These include communications satellites like Starlink; space stations such as the ISS; scientific satellites like the Hubble; Earth observation satellites from companies like Planet Labs, Umbra, and HawkEye 360; GPS; miniature CubeSats for education and research; and military/defense satellites.

Loading next visibility...
Identifier
59309, 2024-056P
Orbit
LEO
Country
Flag of USUS
Related business
Manufacturer
SpaceX/Seattle
Mission
Operational Commercial Communications
Bus & Motor
STARLINK V2M, Unknown motor
Mass
730 kg wet, ~700 kg dry
Launch date (UTC)
2024-03-24 (2 years ago)
Launch vehicle
FALCON 9
Launch site
Air Force Eastern Test Range (AFETR)
Object type
Payload
Rocket body
Debris
Shape & HBR
Box + 2 Pan, 17.7 m
Radar Cross Section
33.884 m², Large (>1 m²)

Expand to show TLE details & history
Last TLE update: 3 days ago

TLE from 3 days ago
0 STARLINK-31455
1 59309U 24056P   26170.90472945  .00000228  00000-0  17829-4 0  9992
2 59309  43.0041  10.2645 0001394 280.5074  79.5620 15.27579138126827
Epoch: 2026-06-19T21:42Z
TLE epoch observation values (Epoch: 2026-06-19T21:42:48.624Z)
Latitude
-0.00006°
Longitude
136.43483°
Altitude
482.654 km
Speed
7.626 km/s
True Right ascension
00h 41m 03s
True Declination
0° 00' 00"
Sunlit
Object was in daylight at epoch
Visualization orbit readout
Latitude
Unknown
Longitude
Unknown
Altitude
Unknown
Speed
Unknown
Apparent Right ascension
Unknown
Apparent Declination
Unknown
Sunlit
N/A
Visualization observer readout
Local Sidereal Time
21:29:50
Azimuth
Unknown
Elevation
Unknown
Doppler factor
Unknown
Orbital elements
Apogee altitude
485.953 km
Perigee altitude
484.039 km
Semi-major axis
6,863.133 km
Eccentricity
0.00014
Inclination
43.0041°
RAAN
10.2645°
Arg. of periapsis
280.5074°
True anomaly
79.57771°
Mean anomaly
79.562°
Eccentric anomaly
79.56986°
Mean motion
3.81733 °/min
Orbital period
94.31 mins
BSTAR
0.000017829
Loading maneuver chart data...
Computing Atmospheric mass density...
Loading historical data...
Loading historical data...
Loading historical data...
Loading historical data...
Loading historical data...
Loading historical data...
Loading historical data...

Documentation

Showing up to 5 results
|